This demonstration page uses our WeatherBlox Daily Observations layout. Learn more.

39.92423, -83.80882

Hourly Observations for April 15, 2017

Temp ( °F °C ) Dew Point ( °F °C ) Humidity (%) Winds ( mph kmh ) Pressure ( in mb ) Visibility ( mi km ) Precip ( " mm )
12:56 am 00:56 Clear 62 16.7 52 11.1 70 70 SE 8 13 30.18 1022 10 16.0934 0 0
1:56 am 01:56 Clear 62 16.7 51 10.6 67 67 SE 9 15 30.16 1022 10 16.0934 0 0
2:56 am 02:56 Cloudy 62 16.7 51 10.6 67 67 SSE 8 13 30.15 1021 10 16.0934 0 0
3:56 am 03:56 Clear 62 16.7 49 9.4 62 62 SSE 8 13 30.14 1021 10 16.0934 0 0
4:56 am 04:56 Clear 61 16.1 47 8.3 60 60 SSE 9 15 30.13 1020 10 16.0934 0 0
5:56 am 05:56 Mostly Clear 61 16.1 47 8.3 60 60 S 7 11 30.14 1021 10 16.0934 0 0
6:56 am 06:56 Clear 60 15.6 47 8.3 62 62 S 6 9 30.15 1021 10 16.0934 0 0
7:56 am 07:56 Cloudy 63 17.2 47 8.3 56 56 S 7 11 30.16 1021 10 16.0934 0 0
8:56 am 08:56 Mostly Sunny 66 18.9 48 8.9 52 52 SW 7 11 30.17 1022 10 16.0934 0 0
9:56 am 09:56 Sunny 68 20 50 10 53 53 SW 14 22 30.18 1022 10 16.0934 0 0
10:56 am 10:56 Partly Cloudy 70 21.1 56 13.3 61 61 SSW 17 28 30.18 1022 10 16.0934 0 0
11:56 am 11:56 Mostly Sunny 73 22.8 57 13.9 57 57 SSW 15 24 30.17 1022 10 16.0934 0 0
12:56 pm 12:56 Mostly Sunny 76 24.4 57 13.9 52 52 SSW 12 19 30.15 1021 10 16.0934 0 0
1:56 pm 13:56 Sunny 79 26.1 56 13.3 45 45 WSW 17 28 30.12 1020 10 16.0934 0 0
2:56 pm 14:56 Sunny 80 26.7 57 13.9 45 45 SW 16 26 30.1 1019 10 16.0934 0 0
3:56 pm 15:56 Mostly Sunny 81 27.2 53 11.7 38 38 SW 28 44 30.07 1018 10 16.0934 0 0
4:56 pm 16:56 Sunny 81 27.2 53 11.7 38 38 SW 22 35 30.05 1018 10 16.0934 0 0
5:56 pm 17:56 Sunny 80 26.7 51 10.6 37 37 SW 23 37 30.04 1017 10 16.0934 0 0
6:56 pm 18:56 Sunny 78 25.6 50 10 37 37 SW 17 28 30.04 1017 10 16.0934 0 0
7:56 pm 19:56 Sunny 75 23.9 50 10 41 41 SW 16 26 30.04 1017 10 16.0934 0 0
8:56 pm 20:56 Clear 71 21.7 50 10 47 47 SSW 9 15 30.05 1018 10 16.0934 0 0
9:56 pm 21:56 Clear 68 20 51 10.6 55 55 SSW 6 9 30.05 1018 10 16.0934 0 0
10:56 pm 22:56 Clear 67 19.4 51 10.6 57 57 SSW 7 11 30.05 1018 10 16.0934 0 0
11:56 pm 23:56 Mostly Clear 65 18.3 51 10.6 61 61 SSW 6 9 30.04 1017 10 16.0934 0 0

Powered by AerisWeather